User: anonymous
Location: Unspecified
(0.0000°N, 0.0000°E)
Time: 07:57:17
(UTC+02:00)
Language:

Delta 2 Rocket - Orbit

View from above orbital plane
View from above orbital plane
View from above satellite
View from above satellite

Ground track
Ground track

The orbit data is extracted from the following two-line orbital elements,

1 20453U 90008B   14203.71888167  .00001065  00000-0  72795-4 0   275
2 20453 035.6258 309.3779 0323535 032.6136 329.4122 14.73589373291022
Epoch (UTC): 22 July 2014 17:15:11
Eccentricity: 0.0323535
inclination: 35.6258°
perigee height: 422 km
apogee height: 877 km
right ascension of ascending node: 309.3779°
argument of perigee: 32.6136°
revolutions per day: 14.73589373
mean anomaly at epoch: 329.4122°
orbit number at epoch: 29102

The dashed part of the orbit path shows where the satellite is in the earth's shadow,  

DLR